VR2R-13 Weather Reports


Display with metric or nautical units.
time (UTC)temp
F
wind
direction
speed
MPH
gust
MPH
rain 1hr
in
rain 24hr
in
rain mn
in
humidity
%
barometer
mb
20260902085034 69 66 6.0 11.0 0.00 0.00 0.00 98 902.2
20260902084635 69 32 3.0 9.0 0.00 0.00 0.00 98 902.3
20260902084534 69 46 0.0 8.0 0.00 0.00 0.00 98 902.3
20260902084036 69 6 4.0 12.0 0.00 0.00 0.00 98 902.3
20260902083534 69 20 5.0 12.0 0.00 0.00 0.00 98 902.2
20260902083435 69 47 5.0 12.0 0.00 0.00 0.00 98 902.3
20260902083034 69 50 5.0 10.0 0.00 0.00 0.00 98 902.2
20260902082835 69 113 4.0 9.0 0.00 0.00 0.00 98 902.2
20260902082534 69 111 0.0 4.0 0.00 0.00 0.00 98 902.1
20260902082235 69 18 4.0 10.0 0.00 0.00 0.00 98 902.3
20260902082034 69 15 3.0 10.0 0.00 0.00 0.00 99 902.2
20260902081635 69 113 4.0 10.0 0.00 0.00 0.00 98 902.2
20260902081533 69 61 4.0 13.0 0.00 0.00 0.00 98 902.2
20260902081035 69 12 5.0 13.0 0.00 0.00 0.00 98 902.1
20260902080534 69 318 4.0 11.0 0.00 0.00 0.00 98 902.1
20260902080435 69 51 4.0 11.0 0.00 0.00 0.00 98 902.2
20260902080033 70 145 1.0 6.0 0.00 0.00 0.00 99 902.0
20260902075835 70 71 3.0 9.0 0.00 0.00 0.00 98 902.0
20260902075533 70 73 4.0 9.0 0.00 0.00 0.00 98 902.0
20260902075235 70 75 4.0 9.0 0.00 0.00 0.00 98 902.0
20260902075033 69 97 4.0 9.0 0.00 0.00 0.00 98 902.0
20260902074635 69 121 4.0 13.0 0.00 0.00 0.00 98 902.0
20260902074533 69 70 4.0 13.0 0.00 0.00 0.00 98 902.0
20260902074035 69 11 6.0 13.0 0.00 0.00 0.00 98 902.2
20260902074033 69 360 6.0 13.0 0.00 0.00 0.00 98 902.2
20260902073533 69 265 3.0 8.0 0.00 0.00 0.00 98 902.3
20260902073434 69 358 4.0 8.0 0.00 0.00 0.00 98 902.2
20260902073033 70 315 3.0 6.0 0.00 0.00 0.00 98 902.3
20260902072834 70 68 1.0 6.0 0.00 0.00 0.00 99 902.2
20260902072533 70 73 2.0 4.0 0.00 0.00 0.00 99 902.3
20260902072234 69 5 4.0 10.0 0.00 0.00 0.00 98 902.1
20260902072033 69 342 3.0 10.0 0.00 0.00 0.00 98 902.3
20260902071634 69 343 5.0 10.0 0.00 0.00 0.00 98 902.2
20260902071533 69 8 4.0 10.0 0.00 0.00 0.00 98 902.3
20260902071035 69 360 3.0 7.0 0.00 0.00 0.00 98 902.3
20260902071033 69 38 3.0 7.0 0.00 0.00 0.00 98 902.3
20260902070533 69 74 4.0 9.0 0.00 0.00 0.00 98 902.2
20260902070434 69 64 4.0 9.0 0.00 0.00 0.00 98 902.2
20260902070033 69 360 4.0 9.0 0.00 0.00 0.00 98 902.3
20260902065533 69 258 4.0 7.0 0.00 0.00 0.00 98 902.2
20260902065234 69 13 0.0 3.0 0.00 0.00 0.00 99 902.3
20260902065033 69 25 3.0 8.0 0.00 0.00 0.00 98 902.3
20260902064533 69 349 3.0 7.0 0.00 0.00 0.00 98 902.3
20260902064035 69 149 2.0 7.0 0.00 0.00 0.00 99 902.3
20260902064033 69 147 2.0 7.0 0.00 0.00 0.00 99 902.3
20260902063533 69 45 4.0 10.0 0.00 0.00 0.00 99 902.4
20260902063434 69 68 5.0 10.0 0.00 0.00 0.00 99 902.3
20260902063032 69 39 4.0 11.0 0.00 0.00 0.00 98 902.4
20260902062834 69 65 4.0 11.0 0.00 0.00 0.00 98 902.3
20260902062533 69 4 5.0 10.0 0.00 0.00 0.00 98 902.4
20260902062234 69 94 4.0 10.0 0.00 0.00 0.00 98 902.4
20260902062033 69 37 4.0 10.0 0.00 0.00 0.00 98 902.4
20260902061634 69 355 5.0 10.0 0.00 0.00 0.00 98 902.4
20260902061532 69 9 5.0 12.0 0.00 0.00 0.00 98 902.5
20260902061034 69 5 5.0 12.0 0.00 0.00 0.00 98 902.5
20260902061032 69 29 5.0 12.0 0.00 0.00 0.00 98 902.5
20260902060532 69 355 1.0 9.0 0.00 0.00 0.00 99 902.6
20260902060435 69 31 2.0 9.0 0.00 0.00 0.00 99 902.6
20260902060032 69 52 2.0 7.0 0.00 0.00 0.00 99 902.5
20260902055834 69 10 4.0 8.0 0.00 0.00 0.00 99 902.4
20260902055234 69 311 5.0 14.0 0.00 0.00 0.00 98 902.5
20260902055032 69 15 5.0 14.0 0.00 0.00 0.00 98 902.5
20260902054634 69 3 7.0 14.0 0.00 0.00 0.00 98 902.6
20260902054532 69 6 6.0 14.0 0.00 0.00 0.00 98 902.5
20260902054034 69 19 5.0 13.0 0.00 0.00 0.00 98 902.6
20260902054032 69 25 5.0 13.0 0.00 0.00 0.00 98 902.6
20260902053532 69 181 5.0 13.0 0.00 0.00 0.00 98 902.7
20260902053434 69 350 5.0 13.0 0.00 0.00 0.00 98 902.7
20260902053032 69 283 4.0 12.0 0.00 0.00 0.00 98 902.7
20260902052833 69 358 6.0 12.0 0.00 0.00 0.00 98 902.8
20260902052532 69 360 6.0 15.0 0.00 0.00 0.00 98 902.8
20260902052234 69 18 8.0 15.0 0.00 0.00 0.00 98 902.9
20260902052032 69 19 7.0 15.0 0.00 0.00 0.00 98 902.8
20260902051633 69 5 2.0 9.0 0.00 0.00 0.00 98 902.8
20260902051532 69 353 5.0 15.0 0.00 0.00 0.00 98 902.8
20260902051034 69 281 7.0 15.0 0.00 0.00 0.00 98 902.8
20260902051032 69 284 7.0 15.0 0.00 0.00 0.00 98 902.8
20260902050433 69 352 6.0 16.0 0.00 0.00 0.00 98 902.9
20260902050032 69 344 7.0 16.0 0.00 0.00 0.00 98 902.8
20260902045833 69 40 9.0 19.0 0.00 0.00 0.00 98 902.7
20260902045532 68 21 0.0 12.0 0.00 0.00 0.00 98 902.7
20260902045233 69 18 9.0 14.0 0.00 0.00 0.00 99 902.8
20260902045032 69 355 3.0 14.0 0.00 0.00 0.00 98 902.9
20260902044633 68 3 8.0 16.0 0.00 0.00 0.00 98 902.9
20260902044532 68 360 6.0 16.0 0.00 0.00 0.00 98 903.0
20260902044034 68 329 8.0 17.0 0.00 0.00 0.00 98 903.1
20260902044032 68 348 8.0 17.0 0.00 0.00 0.00 98 903.1
20260902043532 68 360 8.0 17.0 0.00 0.00 0.00 98 903.0
20260902043032 68 8 8.0 17.0 0.00 0.00 0.00 98 903.2
20260902042833 68 353 5.0 17.0 0.00 0.00 0.00 98 903.2
20260902042532 68 17 7.0 17.0 0.00 0.00 0.00 98 903.2
20260902042233 68 2 7.0 13.0 0.00 0.00 0.00 98 903.3
20260902042032 68 28 4.0 13.0 0.00 0.00 0.00 98 903.2
20260902041633 68 15 0.0 7.0 0.00 0.00 0.00 98 903.3
20260902041533 68 355 4.0 15.0 0.00 0.00 0.00 98 903.2
20260902041034 69 360 5.0 13.0 0.00 0.00 0.00 98 903.2
20260902041032 69 296 5.0 13.0 0.00 0.00 0.00 98 903.2
20260902040531 68 360 6.0 17.0 0.00 0.00 0.00 98 903.3
20260902040433 68 15 0.0 10.0 0.00 0.00 0.00 98 903.2
20260902040031 68 25 13.0 22.0 0.00 0.00 0.00 98 903.3
20260902035833 68 360 13.0 22.0 0.00 0.00 0.00 98 903.1
20260902035531 68 360 10.0 19.0 0.00 0.00 0.00 98 903.2
20260902035233 68 360 11.0 19.0 0.00 0.00 0.00 98 903.3
20260902035031 68 360 6.0 19.0 0.00 0.00 0.00 98 903.3
20260902034633 68 12 2.0 12.0 0.00 0.00 0.00 98 903.3
20260902034531 68 346 12.0 23.0 0.00 0.00 0.00 98 903.3
20260902034033 68 47 11.0 20.0 0.00 0.00 0.00 98 903.4
20260902034031 68 50 11.0 20.0 0.00 0.00 0.00 98 903.4
20260902033531 68 56 11.0 20.0 0.00 0.00 0.00 98 903.4
20260902033433 68 357 12.0 20.0 0.00 0.00 0.00 98 903.4
20260902033031 68 335 9.0 20.0 0.00 0.00 0.00 98 903.2
20260902032833 68 18 10.0 18.0 0.00 0.00 0.00 98 903.2
20260902032531 68 305 0.0 15.0 0.00 0.00 0.00 98 903.4
20260902032233 68 14 7.0 16.0 0.00 0.00 0.00 98 903.4
20260902032031 68 357 9.0 16.0 0.00 0.00 0.00 98 903.3
20260902031633 68 21 9.0 15.0 0.00 0.00 0.00 98 903.3
20260902031531 68 10 8.0 14.0 0.00 0.00 0.00 98 903.3
20260902031033 68 32 6.0 14.0 0.00 0.00 0.00 98 903.3
20260902031031 68 348 6.0 14.0 0.00 0.00 0.00 98 903.3
20260902030531 68 9 10.0 18.0 0.00 0.00 0.00 98 903.2
20260902030432 68 329 10.0 18.0 0.00 0.00 0.00 98 903.3
20260902030031 68 38 8.0 18.0 0.00 0.00 0.00 98 903.1
20260902025832 68 341 9.0 16.0 0.00 0.00 0.00 98 903.3
20260902025531 68 360 8.0 14.0 0.00 0.00 0.00 98 903.3
20260902025233 68 8 6.0 10.0 0.00 0.00 0.00 98 903.3
20260902025031 68 345 1.0 10.0 0.00 0.00 0.00 99 903.3
20260902024632 68 336 4.0 17.0 0.00 0.00 0.00 98 903.2
20260902024531 68 70 8.0 20.0 0.00 0.00 0.00 98 903.3
20260902024033 68 255 9.0 20.0 0.00 0.00 0.00 98 903.3
20260902024031 68 303 9.0 20.0 0.00 0.00 0.00 98 903.3
20260902023531 68 306 8.0 22.0 0.00 0.00 0.00 98 903.4
20260902023432 68 14 7.0 22.0 0.00 0.00 0.00 98 903.4
20260902023031 68 306 6.0 22.0 0.00 0.00 0.00 98 903.5
20260902022832 68 23 7.0 22.0 0.00 0.00 0.00 98 903.4
20260902022531 68 6 10.0 17.0 0.00 0.00 0.00 98 903.3
20260902022031 68 16 8.0 18.0 0.00 0.00 0.00 98 903.4
20260902021632 68 346 7.0 18.0 0.00 0.00 0.00 98 903.3
20260902021531 68 19 6.0 11.0 0.00 0.00 0.00 98 903.4
20260902021032 68 356 5.0 13.0 0.00 0.00 0.00 98 903.3
20260902021030 68 332 5.0 13.0 0.00 0.00 0.00 98 903.4
20260902020531 68 357 7.0 13.0 0.00 0.00 0.00 98 903.4
20260902020432 68 1 7.0 12.0 0.00 0.00 0.00 98 903.3
20260902020030 67 41 2.0 11.0 0.00 0.00 0.00 98 903.4
20260902015530 68 303 3.0 11.0 0.00 0.00 0.00 98 903.4
20260902015232 68 356 12.0 19.0 0.00 0.00 0.00 98 903.5
20260902015030 67 354 8.0 19.0 0.00 0.00 0.00 98 903.3
20260902014632 67 10 9.0 18.0 0.00 0.00 0.00 98 903.4
20260902014530 68 1 9.0 18.0 0.00 0.00 0.00 98 903.3
20260902014032 68 0 9.0 18.0 0.00 0.00 0.00 98 903.3
20260902014030 68 334 9.0 18.0 0.00 0.00 0.00 98 903.3
20260902013530 67 6 2.0 20.0 0.00 0.00 0.00 98 903.2
20260902013432 68 7 10.0 21.0 0.00 0.00 0.00 98 903.4
20260902013030 68 1 12.0 21.0 0.00 0.00 0.00 98 903.3
20260902012832 68 44 12.0 19.0 0.00 0.00 0.00 98 903.4
20260902012232 67 1 7.0 19.0 0.00 0.00 0.00 98 903.1
20260902012030 67 4 8.0 19.0 0.00 0.00 0.00 98 903.4
20260902011631 68 10 8.0 19.0 0.00 0.00 0.00 98 903.3
20260902011530 67 338 7.0 19.0 0.00 0.00 0.00 98 903.2
20260902011032 68 11 10.0 19.0 0.00 0.00 0.00 98 903.3
20260902011030 68 344 10.0 19.0 0.00 0.00 0.00 98 903.2
20260902010530 68 341 13.0 20.0 0.00 0.00 0.00 98 903.2
20260902010432 67 8 11.0 20.0 0.00 0.00 0.00 98 903.2
20260902010030 68 34 10.0 20.0 0.00 0.00 0.00 98 903.4
20260902005831 68 347 8.0 15.0 0.00 0.00 0.00 98 903.1
20260902005530 68 330 10.0 21.0 0.00 0.00 0.00 98 903.2
20260902005231 68 10 10.0 21.0 0.00 0.00 0.00 98 903.3
20260902005030 68 348 10.0 21.0 0.00 0.00 0.00 98 903.2
20260902004631 67 22 9.0 20.0 0.00 0.00 0.00 98 903.1
20260902004530 67 19 11.0 20.0 0.00 0.00 0.00 98 903.2
20260902004032 67 14 8.0 13.0 0.00 0.00 0.00 98 903.1
20260902004030 67 360 8.0 13.0 0.00 0.00 0.00 98 903.1
20260902003530 67 344 1.0 13.0 0.00 0.00 0.00 98 903.1
20260902003431 67 11 1.0 13.0 0.00 0.00 0.00 98 903.2
20260902003030 67 4 11.0 19.0 0.00 0.00 0.00 98 903.2
20260902002831 67 355 8.0 19.0 0.00 0.00 0.00 98 903.1
20260902002530 67 23 8.0 16.0 0.00 0.00 0.00 98 903.1
20260902002231 67 351 8.0 17.0 0.00 0.00 0.00 98 903.1
20260902002030 67 360 9.0 17.0 0.00 0.00 0.00 98 903.1
20260902001631 67 8 8.0 17.0 0.00 0.00 0.00 98 903.0
20260902001530 67 354 9.0 17.0 0.00 0.00 0.00 98 902.9
20260902001031 67 12 9.0 19.0 0.00 0.00 0.00 98 902.9
20260902000529 67 360 10.0 19.0 0.00 0.00 0.00 98 902.9
20260902000431 67 19 8.0 19.0 0.00 0.00 0.00 98 902.9
20260902000030 67 360 7.0 19.0 0.00 0.00 0.00 98 902.9
20260901235831 67 4 14.0 19.0 0.00 0.00 0.00 98 902.8
20260901235231 67 3 10.0 19.0 0.00 0.00 0.00 98 902.7
20260901235031 67 356 7.0 19.0 0.00 0.00 0.00 98 902.8
20260901234631 67 351 11.0 19.0 0.00 0.00 0.00 98 902.6
20260901234529 67 357 10.0 17.0 0.00 0.00 0.00 98 902.6
20260901234031 67 24 10.0 21.0 0.00 0.00 0.00 98 902.6
20260901233529 68 32 11.0 21.0 0.00 0.00 0.00 98 902.5
20260901233431 68 7 13.0 21.0 0.00 0.00 0.00 98 902.5
20260901233029 68 360 11.0 19.0 0.00 0.00 0.00 98 902.5
20260901232831 68 357 12.0 19.0 0.00 0.00 0.00 98 902.5
20260901232529 68 355 12.0 19.0 0.00 0.00 0.00 98 902.2
20260901232231 68 6 11.0 19.0 0.00 0.00 0.00 98 902.5
20260901232029 68 360 9.0 19.0 0.00 0.00 0.00 98 902.4
20260901231631 68 31 10.0 19.0 0.00 0.00 0.00 98 902.5
20260901231529 68 6 10.0 19.0 0.00 0.00 0.00 98 902.4
20260901231031 68 360 10.0 19.0 0.00 0.00 0.00 98 902.3
20260901231029 68 12 10.0 19.0 0.00 0.00 0.00 98 902.3
20260901230529 68 1 9.0 19.0 0.00 0.00 0.00 98 901.9
20260901230430 68 60 10.0 21.0 0.00 0.00 0.00 98 902.2
20260901230029 68 24 10.0 21.0 0.00 0.00 0.00 98 902.0
20260901225830 68 40 9.0 21.0 0.00 0.00 0.00 98 902.0
20260901225529 68 34 10.0 22.0 0.00 0.00 0.00 98 902.1
20260901225230 68 350 11.0 22.0 0.00 0.00 0.00 98 902.0
20260901225029 68 7 11.0 22.0 0.00 0.00 0.00 98 901.8
20260901224630 68 18 6.0 19.0 0.00 0.00 0.00 98 901.9
20260901224031 68 342 10.0 23.0 0.00 0.00 0.00 98 901.8
20260901224029 68 315 10.0 23.0 0.00 0.00 0.00 98 901.7
20260901223529 68 356 11.0 20.0 0.00 0.00 0.00 98 901.6
20260901223430 68 342 10.0 20.0 0.00 0.00 0.00 98 901.9
20260901223029 68 345 12.0 19.0 0.00 0.00 0.00 98 901.6
20260901222830 68 4 7.0 19.0 0.00 0.00 0.00 98 901.9
20260901222529 67 32 12.0 19.0 0.00 0.00 0.00 98 901.9
20260901222230 67 12 6.0 19.0 0.00 0.00 0.00 98 901.8
20260901222029 68 350 10.0 21.0 0.00 0.00 0.00 98 901.9
20260901221630 68 8 11.0 21.0 0.00 0.00 0.00 98 901.8
20260901221529 68 360 12.0 21.0 0.00 0.00 0.00 98 901.8
20260901221031 68 38 11.0 21.0 0.00 0.00 0.00 98 901.7
20260901221029 68 29 11.0 21.0 0.00 0.00 0.00 98 901.7
20260901220529 67 1 14.0 20.0 0.00 0.00 0.00 98 901.6
20260901220430 68 2 12.0 20.0 0.00 0.00 0.00 98 901.5
20260901220029 68 11 14.0 23.0 0.00 0.00 0.00 98 901.6
20260901215830 68 360 6.0 23.0 0.00 0.00 0.00 98 901.4
20260901215529 68 360 13.0 22.0 0.00 0.02 0.00 98 901.6
20260901215230 68 12 11.0 22.0 0.00 0.02 0.00 98 901.6
20260901215029 68 355 11.0 19.0 0.00 0.02 0.00 98 901.6
20260901214630 68 35 10.0 19.0 0.00 0.02 0.00 98 901.7
20260901214529 68 2 10.0 19.0 0.00 0.02 0.00 98 901.6
20260901214030 68 356 11.0 19.0 0.00 0.02 0.00 98 901.7
20260901214028 68 3 11.0 19.0 0.00 0.02 0.00 98 901.7
20260901213528 68 12 10.0 17.0 0.00 0.02 0.00 98 901.6
20260901213430 68 332 9.0 16.0 0.00 0.02 0.00 98 901.6
20260901213028 67 38 11.0 17.0 0.00 0.02 0.00 98 901.7
20260901212830 68 360 8.0 17.0 0.00 0.02 0.00 98 901.7
20260901212528 68 27 10.0 17.0 0.00 0.02 0.00 98 901.7
20260901212230 68 313 11.0 17.0 0.00 0.02 0.00 98 901.7
20260901211528 68 334 5.0 12.0 0.00 0.02 0.00 98 901.9
20260901211030 68 13 6.0 17.0 0.01 0.02 0.00 98 901.9
20260901211028 68 19 6.0 17.0 0.01 0.02 0.00 98 901.9
20260901210528 68 358 6.0 17.0 0.01 0.02 0.00 98 901.9
20260901210430 68 14 6.0 17.0 0.01 0.02 0.00 98 902.0
20260901210028 68 360 3.0 12.0 0.02 0.02 0.00 98 901.9
20260901205830 68 337 5.0 12.0 0.02 0.02 0.00 98 901.9
20260901205528 68 53 5.0 12.0 0.02 0.02 0.00 98 901.8
20260901205229 68 306 5.0 12.0 0.02 0.02 0.00 98 901.8
20260901205028 68 42 4.0 14.0 0.02 0.02 0.00 98 901.9
20260901204629 68 358 4.0 14.0 0.02 0.02 0.00 98 901.9
20260901204528 68 352 3.0 14.0 0.02 0.02 0.00 98 901.9
20260901204030 68 360 5.0 10.0 0.02 0.02 0.00 98 901.9
20260901204028 68 358 5.0 10.0 0.02 0.02 0.00 98 901.9
20260901203528 68 331 5.0 9.0 0.02 0.02 0.00 98 901.7
20260901203429 68 13 5.0 9.0 0.02 0.02 0.00 98 901.8
20260901203028 68 348 4.0 10.0 0.02 0.02 0.00 98 901.7
20260901202829 68 359 5.0 10.0 0.02 0.02 0.00 98 901.7
20260901202528 68 343 4.0 10.0 0.02 0.02 0.00 98 901.7
20260901202229 68 29 6.0 10.0 0.02 0.02 0.00 98 901.8
20260901202028 68 315 5.0 11.0 0.02 0.02 0.00 98 901.7
20260901201629 68 311 4.0 12.0 0.02 0.02 0.00 98 901.7
20260901201528 68 322 5.0 18.0 0.02 0.02 0.00 98 901.8
20260901201029 68 68 5.0 18.0 0.01 0.01 0.00 98 901.7
20260901200528 68 26 7.0 15.0 0.01 0.01 0.00 98 901.6
20260901200429 68 350 6.0 15.0 0.01 0.01 0.00 98 901.7
20260901200028 68 9 6.0 17.0 0.00 0.00 0.00 98 901.7
20260901195829 68 360 5.0 17.0 0.00 0.00 0.00 98 901.6
20260901195528 68 42 7.0 17.0 0.00 0.00 0.00 98 901.6
20260901195229 68 41 8.0 17.0 0.00 0.00 0.00 98 901.6
20260901195027 68 96 7.0 15.0 0.00 0.00 0.00 98 901.6
20260901194629 68 5 6.0 15.0 0.00 0.00 0.00 98 901.7
20260901194528 68 2 6.0 15.0 0.00 0.00 0.00 98 901.6
20260901194029 68 46 6.0 18.0 0.00 0.00 0.00 98 901.6
20260901193527 68 12 5.0 18.0 0.00 0.00 0.00 98 901.7
20260901193429 68 7 6.0 18.0 0.00 0.00 0.00 98 901.7
20260901193027 68 4 6.0 15.0 0.00 0.00 0.00 98 901.7
20260901192829 68 18 7.0 15.0 0.00 0.00 0.00 98 901.7
20260901192528 68 317 1.0 7.0 0.00 0.00 0.00 98 901.6
20260901192229 68 17 6.0 14.0 0.00 0.00 0.00 98 901.7
20260901192027 68 352 7.0 14.0 0.00 0.00 0.00 98 901.7
20260901191629 68 16 5.0 13.0 0.00 0.00 0.00 98 901.7
20260901191527 68 3 1.0 7.0 0.00 0.00 0.00 98 901.8
20260901191029 68 360 6.0 14.0 0.00 0.00 0.00 98 901.7
20260901191027 68 329 6.0 14.0 0.00 0.00 0.00 98 901.7
20260901190527 68 360 6.0 13.0 0.00 0.00 0.00 98 901.9
20260901190428 68 26 6.0 13.0 0.00 0.00 0.00 98 901.8
20260901190027 68 360 7.0 13.0 0.00 0.00 0.00 98 901.8
20260901185828 68 325 3.0 11.0 0.00 0.00 0.00 98 901.8
20260901185527 68 360 4.0 8.0 0.00 0.00 0.00 98 901.8
20260901185228 68 347 4.0 11.0 0.00 0.00 0.00 98 901.8
20260901185027 68 23 4.0 11.0 0.00 0.00 0.00 98 901.8
20260901184628 68 341 5.0 15.0 0.00 0.00 0.00 98 901.8
20260901184527 68 360 5.0 15.0 0.00 0.00 0.00 98 901.9
20260901184029 68 7 7.0 15.0 0.00 0.00 0.00 98 901.9
20260901184027 68 23 7.0 15.0 0.00 0.00 0.00 98 901.9
20260901183527 68 19 9.0 14.0 0.00 0.00 0.00 98 901.8
20260901183428 68 37 9.0 14.0 0.00 0.00 0.00 98 901.9
20260901183027 68 13 8.0 17.0 0.01 0.03 0.00 98 901.8
20260901182828 68 29 8.0 17.0 0.01 0.03 0.00 98 901.9
20260901182527 68 26 9.0 15.0 0.01 0.03 0.00 98 901.9
20260901182228 68 45 8.0 15.0 0.01 0.03 0.00 98 901.9
20260901182027 68 348 8.0 14.0 0.01 0.03 0.00 98 902.0
20260901181628 68 28 7.0 14.0 0.01 0.03 0.00 98 902.0
20260901181527 68 310 6.0 14.0 0.01 0.03 0.00 98 902.0
20260901181029 69 334 6.0 14.0 0.01 0.03 0.00 98 902.1
20260901181027 69 19 6.0 14.0 0.01 0.03 0.00 98 902.1
20260901180527 69 13 5.0 14.0 0.01 0.03 0.00 98 902.1
20260901180428 69 4 7.0 14.0 0.01 0.03 0.00 98 902.0
20260901180027 69 9 8.0 14.0 0.01 0.03 0.00 98 902.0
20260901175828 69 360 9.0 14.0 0.01 0.03 0.00 98 902.0
20260901175527 69 355 8.0 12.0 0.01 0.03 0.00 98 902.1
20260901175228 69 40 7.0 12.0 0.01 0.03 0.00 98 902.1
20260901175027 69 6 8.0 12.0 0.01 0.03 0.00 98 902.1
20260901174628 69 10 5.0 10.0 0.00 0.02 0.00 98 902.2
20260901174030 69 329 3.0 11.0 0.02 0.02 0.00 98 902.2
20260901174028 69 311 3.0 11.0 0.02 0.02 0.00 98 902.2
20260901173527 69 341 6.0 11.0 0.02 0.02 0.00 98 902.2
20260901173428 69 12 5.0 11.0 0.02 0.02 0.00 98 902.2
20260901173027 69 341 3.0 16.0 0.02 0.02 0.00 98 902.3
20260901172828 69 12 5.0 16.0 0.02 0.02 0.00 98 902.3
20260901172526 69 12 6.0 16.0 0.02 0.02 0.00 98 902.2
20260901172026 70 33 9.0 16.0 0.02 0.02 0.00 98 902.3
20260901171628 70 38 7.0 16.0 0.02 0.02 0.00 98 902.3
20260901171526 70 64 8.0 16.0 0.02 0.02 0.00 98 902.4
20260901171028 70 58 8.0 13.0 0.02 0.02 0.00 98 902.5
20260901171026 70 63 8.0 13.0 0.02 0.02 0.00 98 902.5
20260901170526 70 58 7.0 13.0 0.02 0.02 0.00 98 902.6
20260901170428 70 24 7.0 13.0 0.02 0.02 0.00 98 902.6
20260901170026 70 27 6.0 12.0 0.02 0.02 0.00 98 902.6
20260901165828 70 61 7.0 13.0 0.02 0.02 0.00 98 902.6
20260901165526 70 36 7.0 13.0 0.02 0.02 0.00 98 902.6
20260901165228 70 51 7.0 15.0 0.02 0.02 0.00 98 902.6
20260901165026 70 30 8.0 15.0 0.02 0.02 0.00 98 902.6
20260901164628 70 42 7.0 15.0 0.02 0.02 0.00 98 902.6
20260901164526 70 50 8.0 15.0 0.02 0.02 0.00 98 902.6
20260901164028 70 47 6.0 13.0 0.00 0.00 0.00 99 902.6
20260901164026 70 55 6.0 13.0 0.00 0.00 0.00 99 902.6
20260901163526 70 66 3.0 9.0 0.00 0.00 0.00 99 902.7
20260901163427 70 72 0.0 8.0 0.00 0.00 0.00 99 902.7
20260901163026 70 59 9.0 14.0 0.00 0.00 0.00 98 902.6
20260901162828 70 27 7.0 14.0 0.00 0.00 0.00 99 902.6
20260901162526 70 88 7.0 14.0 0.00 0.00 0.00 99 902.7
20260901162227 70 65 8.0 14.0 0.00 0.00 0.00 98 902.7
20260901162026 70 26 9.0 14.0 0.00 0.00 0.00 98 902.8
20260901161627 70 34 7.0 13.0 0.00 0.00 0.00 99 902.8
20260901161526 70 34 7.0 11.0 0.00 0.00 0.00 99 902.7
20260901161028 70 50 7.0 13.0 0.00 0.00 0.00 99 902.9
20260901161026 70 71 7.0 13.0 0.00 0.00 0.00 99 902.9
20260901160526 70 22 6.0 12.0 0.00 0.00 0.00 99 902.9
20260901160427 70 30 7.0 12.0 0.00 0.00 0.00 99 902.9
20260901160026 70 82 2.0 6.0 0.00 0.00 0.00 99 903.0
20260901155827 70 56 5.0 13.0 0.00 0.00 0.00 99 903.0
20260901155526 70 67 8.0 13.0 0.00 0.00 0.00 99 902.9
20260901155227 70 61 5.0 13.0 0.00 0.00 0.00 99 903.0
20260901154627 70 59 7.0 11.0 0.00 0.00 0.00 99 903.0
20260901154526 70 62 6.0 9.0 0.00 0.00 0.00 99 902.9
20260901154026 70 66 0.0 5.0 0.00 0.00 0.00 99 902.9
20260901153525 70 94 6.0 13.0 0.00 0.00 0.00 99 902.8
20260901153427 70 42 6.0 13.0 0.00 0.00 0.00 99 902.8
20260901153025 70 35 6.0 13.0 0.00 0.00 0.00 99 902.8
20260901152827 70 76 8.0 13.0 0.00 0.00 0.00 98 902.8
20260901152525 70 9 7.0 13.0 0.00 0.00 0.00 99 902.7
20260901152227 70 33 9.0 13.0 0.00 0.00 0.00 99 902.8
20260901152026 70 29 7.0 11.0 0.00 0.00 0.00 99 902.7
20260901151627 70 74 8.0 19.0 0.02 0.02 0.00 99 902.7
20260901151525 70 32 8.0 19.0 0.02 0.02 0.00 99 902.7
20260901151027 70 37 12.0 19.0 0.02 0.02 0.00 98 902.7
20260901151025 70 39 12.0 19.0 0.02 0.02 0.00 98 902.7
20260901150525 70 52 9.0 15.0 0.02 0.02 0.00 99 902.7
20260901150427 70 53 9.0 15.0 0.01 0.01 0.00 99 902.6
20260901150026 70 65 0.0 8.0 0.00 0.00 0.00 99 902.7
20260901145827 70 65 8.0 14.0 0.02 0.02 0.00 99 902.7
20260901145525 70 43 7.0 14.0 0.01 0.01 0.00 99 902.7
20260901145227 70 71 7.0 14.0 0.01 0.01 0.00 99 902.7
20260901145025 70 72 7.0 14.0 0.01 0.01 0.00 99 902.8
20260901144627 70 71 7.0 14.0 0.00 0.00 0.00 99 902.8
20260901144525 70 65 7.0 11.0 0.00 0.00 0.00 99 902.7
20260901144027 70 44 3.0 9.0 0.00 0.00 0.00 99 902.7
20260901144025 70 42 3.0 9.0 0.00 0.00 0.00 99 902.7
20260901143525 70 324 1.0 9.0 0.00 0.00 0.00 99 902.7
20260901143427 70 13 5.0 11.0 0.00 0.00 0.00 99 902.8
20260901143025 70 46 9.0 15.0 0.01 0.01 0.00 99 902.7
20260901142826 70 32 9.0 15.0 0.00 0.00 0.00 99 902.7
20260901142525 70 60 8.0 13.0 0.00 0.00 0.00 99 902.7
20260901142226 70 44 9.0 13.0 0.00 0.00 0.00 99 902.7
20260901142025 70 49 7.0 13.0 0.00 0.00 0.00 99 902.6
20260901141626 70 38 0.0 9.0 0.00 0.00 0.00 99 902.7
20260901141525 70 57 5.0 10.0 0.00 0.00 0.00 99 902.7
20260901141027 70 41 8.0 16.0 0.00 0.00 0.00 99 902.5
20260901141025 70 10 8.0 16.0 0.00 0.00 0.00 99 902.4
20260901140525 70 37 7.0 16.0 0.18 0.18 0.00 99 902.5
20260901140426 70 38 7.0 17.0 0.16 0.16 0.00 99 902.4
20260901140025 70 59 10.0 17.0 0.15 0.15 0.00 99 902.5
20260901135826 70 80 10.0 17.0 0.15 0.15 0.00 99 902.4
20260901135525 70 64 12.0 17.0 0.14 0.14 0.00 99 902.4
20260901135226 70 45 11.0 17.0 0.13 0.13 0.00 99 902.4
20260901135025 70 38 12.0 17.0 0.13 0.13 0.00 99 902.4
20260901134626 70 42 10.0 15.0 0.13 0.13 0.00 99 902.4
20260901134525 70 76 9.0 15.0 0.11 0.11 0.00 99 902.5
20260901134026 70 44 6.0 13.0 0.06 0.06 0.00 99 902.4
20260901133525 70 360 4.0 12.0 0.01 0.01 0.00 99 902.2
20260901133426 70 26 1.0 6.0 0.00 0.00 0.00 99 902.3
20260901133025 70 93 4.0 14.0 0.05 0.05 0.00 99 902.1
20260901132826 70 97 7.0 16.0 0.03 0.03 0.00 99 902.0
20260901132524 70 28 4.0 16.0 0.02 0.02 0.00 99 901.9
20260901132226 70 16 6.0 16.0 0.02 0.02 0.00 99 902.0
20260901132025 70 34 9.0 19.0 0.01 0.01 0.00 99 901.9
20260901131626 70 37 5.0 19.0 0.01 0.01 0.00 99 901.8
20260901131524 70 138 3.0 19.0 0.01 0.01 0.00 99 901.8
20260901131025 70 342 6.0 14.0 0.00 0.00 0.00 99 901.8
20260901130426 70 13 8.0 21.0 0.02 0.02 0.00 99 901.8
20260901130024 70 321 8.0 21.0 0.01 0.01 0.00 99 901.7
20260901125826 70 94 6.0 20.0 0.00 0.00 0.00 99 901.7
20260901122524 70 341 10.0 24.0 0.00 0.00 0.00 98 901.3
20260901122226 70 6 8.0 22.0 0.00 0.00 0.00 98 901.5
20260901122024 70 337 10.0 22.0 0.00 0.00 0.00 98 901.4
20260901121625 70 25 2.0 21.0 0.00 0.00 0.00 99 901.5
20260901121524 70 23 9.0 23.0 0.00 0.00 0.00 98 901.3
20260901121026 70 360 12.0 23.0 0.00 0.00 0.00 98 901.1
20260901121024 70 353 12.0 23.0 0.00 0.00 0.00 98 901.2
20260901120524 70 16 8.0 20.0 0.00 0.00 0.00 99 901.4
20260901120425 70 353 7.0 20.0 0.00 0.00 0.00 99 901.3
20260901120024 70 330 2.0 17.0 0.00 0.00 0.00 99 901.4
20260901115825 70 93 8.0 19.0 0.00 0.00 0.00 99 901.3
20260901115524 70 12 8.0 19.0 0.00 0.00 0.00 98 901.4
20260901115225 70 348 9.0 19.0 0.00 0.00 0.00 98 901.2
20260901114625 70 17 1.0 10.0 0.00 0.00 0.00 99 901.3
20260901114025 70 54 7.0 16.0 0.00 0.00 0.00 98 901.1
20260901113524 70 79 4.0 14.0 0.00 0.00 0.00 99 901.1
20260901113425 70 51 1.0 7.0 0.00 0.00 0.00 99 901.1
20260901113024 70 37 7.0 17.0 0.00 0.00 0.00 98 901.0
20260901112825 70 12 6.0 17.0 0.00 0.00 0.00 98 901.1
20260901112524 70 7 7.0 15.0 0.00 0.00 0.00 98 901.1
20260901112225 70 44 5.0 15.0 0.00 0.00 0.00 98 901.1
20260901112024 70 29 6.0 15.0 0.00 0.00 0.00 98 901.2
20260901111625 70 58 7.0 19.0 0.00 0.00 0.00 98 901.1
20260901111523 70 44 8.0 19.0 0.00 0.00 0.00 98 901.0
20260901111025 70 6 8.0 19.0 0.00 0.00 0.00 98 901.1
20260901110524 70 28 1.0 13.0 0.00 0.00 0.00 99 901.1
20260901110425 70 11 9.0 17.0 0.00 0.00 0.00 98 901.2
20260901110024 70 42 8.0 16.0 0.00 0.00 0.00 98 901.1
20260901105825 70 4 1.0 9.0 0.00 0.00 0.00 99 901.2
20260901105524 70 29 9.0 20.0 0.00 0.00 0.00 99 901.0
20260901105225 70 10 7.0 17.0 0.00 0.00 0.00 99 901.2
20260901105023 70 25 7.0 17.0 0.00 0.00 0.00 99 901.1
20260901104625 70 37 9.0 17.0 0.00 0.00 0.00 99 901.1
20260901104523 70 34 8.0 15.0 0.00 0.00 0.00 99 901.1
20260901104025 70 48 7.0 13.0 0.00 0.00 0.00 99 901.2
20260901103524 70 59 4.0 12.0 0.00 0.00 0.00 99 901.2
20260901103425 70 28 4.0 12.0 0.00 0.00 0.00 99 901.2
20260901103023 70 60 4.0 15.0 0.01 0.01 0.00 99 901.1
20260901102825 70 348 8.0 15.0 0.00 0.00 0.00 99 901.1
20260901102523 70 52 6.0 15.0 0.00 0.00 0.00 99 901.1
20260901102224 70 46 7.0 13.0 0.00 0.00 0.00 99 901.1
20260901102023 70 22 5.0 8.0 0.00 0.00 0.00 99 901.2
20260901101624 69 32 0.0 10.0 0.00 0.00 0.00 99 901.1
20260901101523 70 12 3.0 15.0 0.00 0.00 0.00 98 901.1
20260901101025 70 355 6.0 15.0 0.00 0.00 0.00 98 901.1
20260901101023 70 9 6.0 15.0 0.00 0.00 0.00 98 901.0
20260901100523 70 31 8.0 14.0 0.00 0.00 0.00 98 901.0
20260901100424 70 51 7.0 13.0 0.00 0.00 0.00 98 901.1
20260901100023 70 47 6.0 15.0 0.00 0.00 0.00 98 901.0
20260901095824 70 36 5.0 15.0 0.00 0.00 0.00 99 901.0
20260901095523 70 41 7.0 15.0 0.00 0.00 0.00 98 900.9
20260901095225 70 38 8.0 15.0 0.00 0.00 0.00 98 900.9
20260901095023 70 35 8.0 14.0 0.00 0.00 0.00 99 900.8
20260901094624 70 47 4.0 12.0 0.00 0.00 0.00 99 900.9
20260901094024 70 39 3.0 14.0 0.00 0.00 0.00 99 900.8
20260901093523 71 60 8.0 13.0 0.00 0.00 0.00 99 900.9
20260901093424 71 11 8.0 13.0 0.00 0.00 0.00 99 900.9
20260901093023 71 39 9.0 13.0 0.00 0.00 0.00 99 900.9
20260901092824 71 43 5.0 13.0 0.00 0.00 0.00 99 900.9
20260901092523 71 63 6.0 10.0 0.00 0.00 0.00 99 900.9
20260901092224 71 74 5.0 11.0 0.00 0.00 0.00 99 900.8
20260901092025 71 48 0.0 0.0 0.00 0.00 0.00 99 900.8
20260901091624 71 57 9.0 14.0 0.00 0.00 0.00 99 900.7
20260901091523 71 47 9.0 14.0 0.00 0.00 0.00 99 900.7
20260901091024 71 41 6.0 13.0 0.00 0.00 0.00 99 900.8
20260901090523 71 62 7.0 11.0 0.00 0.00 0.00 99 900.8
20260901090424 71 22 5.0 11.0 0.00 0.00 0.00 99 900.8
20260901090023 71 51 9.0 12.0 0.00 0.00 0.00 99 900.8
20260901085824 71 47 0.0 10.0 0.00 0.00 0.00 99 900.8
20260901085523 71 51 9.0 15.0 0.00 0.00 0.00 99 900.7
20260901085224 71 18 10.0 15.0 0.00 0.00 0.00 99 900.6